When you browse on this site, cookies collect data to enhance your experience and personalize the content and advertising you see.
Visit our Privacy Policy to learn more. By continuing to use the site, you agree to this use of cookies and data.
  • In Austria
  • List of Countries
  • For 7 days
  • Water Temperature
  • Satellite Maps
  • Weather Map
  • News
  • Weather Widgets
  • user-avatar
    Login

    Hourly Weather Copperas Cove

    Today, 26 June, Wednesday

    Time Temperature Precipitation Wind Pressure Humidity
    00:00 +24°C° 0 mm 3 mps 734 mmHg 88%
    01:00 +22°C° 0 mm 3 mps 734 mmHg 88%
    02:00 +22°C° 0 mm 3 mps 734 mmHg 89%
    03:00 +22°C° 0 mm 3 mps 734 mmHg 89%
    04:00 +23°C° 0 mm 2 mps 734 mmHg 89%
    05:00 +23°C° 0 mm 2 mps 735 mmHg 89%
    06:00 +25°C° 0.1 mm 3 mps 735 mmHg 82%
    07:00 +26°C° 0.1 mm 4 mps 736 mmHg 76%
    08:00 +28°C° 0.1 mm 6 mps 736 mmHg 70%
    09:00 +29°C° 0.4 mm 6 mps 736 mmHg 66%
    10:00 +29°C° 0.4 mm 6 mps 737 mmHg 63%
    11:00 +30°C° 0.4 mm 6 mps 737 mmHg 60%
    12:00 +30°C° 0.1 mm 6 mps 736 mmHg 62%
    13:00 +29°C° 0.1 mm 6 mps 736 mmHg 65%
    14:00 +29°C° 0.1 mm 6 mps 735 mmHg 67%
    15:00 +29°C° 0 mm 6 mps 736 mmHg 67%
    16:00 +29°C° 0 mm 6 mps 736 mmHg 68%
    17:00 +29°C° 0 mm 5 mps 736 mmHg 68%
    18:00 +27°C° 0 mm 4 mps 736 mmHg 73%
    19:00 +26°C° 0 mm 4 mps 736 mmHg 78%
    20:00 +25°C° 0 mm 3 mps 736 mmHg 83%
    21:00 +24°C° 0 mm 3 mps 736 mmHg 84%
    22:00 +24°C° 0 mm 3 mps 736 mmHg 85%
    23:00 +22°C° 0 mm 3 mps 737 mmHg 86%

    Tomorrow, 27 June, Thursday

    Time Temperature Precipitation Wind Pressure Humidity
    00:00 +22°C° 0 mm 3 mps 737 mmHg 88%
    01:00 +22°C° 0 mm 3 mps 736 mmHg 91%
    02:00 +21°C° 0 mm 2 mps 736 mmHg 93%
    03:00 +21°C° 0 mm 2 mps 736 mmHg 93%
    04:00 +21°C° 0 mm 2 mps 737 mmHg 94%
    05:00 +21°C° 0 mm 2 mps 737 mmHg 94%
    06:00 +24°C° 0 mm 3 mps 737 mmHg 90%
    07:00 +25°C° 0 mm 3 mps 738 mmHg 86%
    08:00 +26°C° 0 mm 4 mps 738 mmHg 82%
    09:00 +28°C° 0 mm 4 mps 738 mmHg 75%
    10:00 +30°C° 0 mm 4 mps 738 mmHg 67%
    11:00 +32°C° 0 mm 4 mps 738 mmHg 59%
    12:00 +33°C° 0 mm 4 mps 737 mmHg 56%
    13:00 +34°C° 0 mm 4 mps 737 mmHg 54%
    14:00 +34°C° 0 mm 3 mps 736 mmHg 51%
    15:00 +33°C° 0.6 mm 4 mps 736 mmHg 56%
    16:00 +32°C° 0.6 mm 4 mps 736 mmHg 60%
    17:00 +30°C° 0.6 mm 5 mps 736 mmHg 65%
    18:00 +29°C° 0.1 mm 4 mps 736 mmHg 70%
    19:00 +28°C° 0.1 mm 4 mps 736 mmHg 75%
    20:00 +27°C° 0.1 mm 4 mps 736 mmHg 79%
    21:00 +26°C° 0.1 mm 4 mps 736 mmHg 81%
    22:00 +26°C° 0.1 mm 4 mps 736 mmHg 83%
    23:00 +26°C° 0.1 mm 3 mps 737 mmHg 86%

    Day after tomorrow, 28 June, Friday

    Time Temperature Precipitation Wind Pressure Humidity
    00:00 +25°C° 0 mm 3 mps 736 mmHg 86%
    01:00 +25°C° 0 mm 3 mps 736 mmHg 86%
    02:00 +24°C° 0 mm 3 mps 736 mmHg 86%
    03:00 +24°C° 0 mm 3 mps 736 mmHg 87%
    04:00 +24°C° 0 mm 3 mps 737 mmHg 88%
    05:00 +23°C° 0 mm 2 mps 737 mmHg 89%
    06:00 +25°C° 0 mm 3 mps 737 mmHg 80%
    07:00 +27°C° 0 mm 3 mps 737 mmHg 72%
    08:00 +29°C° 0 mm 3 mps 738 mmHg 64%
    09:00 +30°C° 0 mm 3 mps 738 mmHg 58%
    10:00 +33°C° 0 mm 3 mps 738 mmHg 52%
    11:00 +34°C° 0 mm 3 mps 738 mmHg 46%
    12:00 +35°C° 0 mm 3 mps 737 mmHg 43%
    13:00 +35°C° 0 mm 3 mps 737 mmHg 40%
    14:00 +36°C° 0 mm 2 mps 736 mmHg 38%
    15:00 +36°C° 0 mm 2 mps 736 mmHg 39%
    16:00 +35°C° 0 mm 2 mps 735 mmHg 41%
    17:00 +35°C° 0 mm 2 mps 735 mmHg 43%
    18:00 +32°C° 0 mm 2 mps 735 mmHg 48%
    19:00 +30°C° 0 mm 2 mps 735 mmHg 54%
    20:00 +28°C° 0 mm 3 mps 735 mmHg 59%
    21:00 +27°C° 0.1 mm 3 mps 735 mmHg 62%
    22:00 +27°C° 0.1 mm 3 mps 736 mmHg 65%
    23:00 +26°C° 0.1 mm 3 mps 736 mmHg 69%

    29 June, Saturday

    Time Temperature Precipitation Wind Pressure Humidity
    00:00 +25°C° 0 mm 3 mps 736 mmHg 72%
    01:00 +25°C° 0 mm 2 mps 735 mmHg 75%
    02:00 +24°C° 0 mm 2 mps 735 mmHg 78%
    03:00 +24°C° 0 mm 2 mps 735 mmHg 79%
    04:00 +24°C° 0 mm 2 mps 736 mmHg 79%
    05:00 +24°C° 0 mm 1 mps 736 mmHg 80%
    06:00 +26°C° 0 mm 1 mps 736 mmHg 72%
    07:00 +28°C° 0 mm 1 mps 736 mmHg 65%
    08:00 +30°C° 0 mm 1 mps 737 mmHg 58%
    09:00 +31°C° 0 mm 1 mps 737 mmHg 53%
    10:00 +33°C° 0 mm 1 mps 736 mmHg 48%
    11:00 +32°C° 0 mm 0 mps 736 mmHg 44%
    12:00 +34°C° 0 mm 1 mps 736 mmHg 43%
    13:00 +35°C° 0 mm 2 mps 735 mmHg 42%
    14:00 +35°C° 0 mm 2 mps 735 mmHg 41%
    15:00 +34°C° 0 mm 3 mps 734 mmHg 45%
    16:00 +33°C° 0 mm 4 mps 734 mmHg 49%
    17:00 +32°C° 0 mm 4 mps 733 mmHg 53%
    18:00 +30°C° 0 mm 4 mps 734 mmHg 56%
    19:00 +28°C° 0 mm 3 mps 734 mmHg 58%
    20:00 +26°C° 0 mm 2 mps 734 mmHg 60%
    21:00 +26°C° 0 mm 2 mps 734 mmHg 62%
    22:00 +26°C° 0 mm 2 mps 735 mmHg 63%
    23:00 +25°C° 0 mm 1 mps 735 mmHg 65%

    30 June, Sunday

    Time Temperature Precipitation Wind Pressure Humidity
    00:00 +25°C° 0 mm 1 mps 735 mmHg 66%
    01:00 +25°C° 0 mm 1 mps 734 mmHg 67%
    02:00 +24°C° 0 mm 1 mps 734 mmHg 67%
    03:00 +24°C° 0 mm 1 mps 734 mmHg 71%
    04:00 +24°C° 0 mm 1 mps 734 mmHg 74%
    05:00 +24°C° 0 mm 1 mps 734 mmHg 77%
    06:00 +26°C° 0 mm 1 mps 735 mmHg 71%
    07:00 +27°C° 0 mm 1 mps 735 mmHg 66%
    08:00 +29°C° 0 mm 1 mps 735 mmHg 60%
    09:00 +30°C° 1 mm 1 mps 735 mmHg 56%
    10:00 +31°C° 1 mm 1 mps 735 mmHg 51%
    11:00 +32°C° 1 mm 1 mps 735 mmHg 46%
    12:00 +34°C° 0 mm 2 mps 734 mmHg 45%
    13:00 +34°C° 0 mm 2 mps 734 mmHg 43%
    14:00 +35°C° 0 mm 2 mps 733 mmHg 41%
    15:00 +34°C° 0.1 mm 3 mps 733 mmHg 46%
    16:00 +33°C° 0.1 mm 4 mps 733 mmHg 51%
    17:00 +32°C° 0.1 mm 5 mps 732 mmHg 57%
    18:00 +29°C° 0.3 mm 4 mps 733 mmHg 61%
    19:00 +28°C° 0.3 mm 4 mps 733 mmHg 66%
    20:00 +26°C° 0.3 mm 3 mps 733 mmHg 70%
    21:00 +26°C° 0 mm 3 mps 733 mmHg 75%
    22:00 +25°C° 0 mm 3 mps 734 mmHg 79%
    23:00 +25°C° 0 mm 3 mps 734 mmHg 84%

    1 July, Monday

    Time Temperature Precipitation Wind Pressure Humidity
    00:00 +24°C° 0 mm 3 mps 734 mmHg 87%
    01:00 +24°C° 0 mm 2 mps 733 mmHg 90%
    02:00 +23°C° 0 mm 2 mps 733 mmHg 93%
    03:00 +23°C° 0.1 mm 2 mps 733 mmHg 94%
    04:00 +23°C° 0.1 mm 2 mps 733 mmHg 95%
    05:00 +23°C° 0.1 mm 2 mps 734 mmHg 96%
    06:00 +25°C° 0 mm 2 mps 734 mmHg 88%
    07:00 +26°C° 0 mm 2 mps 734 mmHg 80%
    08:00 +28°C° 0 mm 2 mps 735 mmHg 72%
    09:00 +29°C° 0.3 mm 2 mps 734 mmHg 67%
    10:00 +30°C° 0.3 mm 2 mps 734 mmHg 62%
    11:00 +31°C° 0.3 mm 2 mps 734 mmHg 56%
    12:00 +32°C° 0.8 mm 2 mps 734 mmHg 54%
    13:00 +33°C° 0.8 mm 3 mps 733 mmHg 52%
    14:00 +34°C° 0.8 mm 3 mps 733 mmHg 50%
    15:00 +33°C° 0.1 mm 3 mps 733 mmHg 53%
    16:00 +33°C° 0.1 mm 4 mps 732 mmHg 56%
    17:00 +32°C° 0.1 mm 5 mps 732 mmHg 59%
    18:00 +30°C° 0.2 mm 5 mps 732 mmHg 65%
    19:00 +28°C° 0.2 mm 5 mps 733 mmHg 71%
    20:00 +27°C° 0.2 mm 5 mps 733 mmHg 76%
    21:00 +26°C° 0.4 mm 5 mps 733 mmHg 79%
    22:00 +26°C° 0.4 mm 4 mps 733 mmHg 82%
    23:00 +25°C° 0.4 mm 4 mps 734 mmHg 85%
    Show more